Location: *
(47.6569°N, 7.4256°E)
Time: 19:47:06
(UTC+00:00)

COSMO-SKYMED 1 - Pass Details

Date: 14 December 2019
Orbit: 621 x 623 km, 97.9° (Epoch: 18 January)

Event Time Altitude Azimuth Distance (km) Brightness Sun altitude
Exits shadow 18:42:50 23° 326° (NW) 1,339 4.5 -29.9°
Maximum altitude 18:44:15 28° 294° (WNW) 1,184 4.4 -30.1°
Drops below altitude 10° 18:47:56 10° 236° (SW) 1,991 5.8 -30.7°
Sets 18:50:21 0° 225° (SW) 2,892 6.6 -31.1°
